Temp
12 12 12 12 12 13 13 13 13 13 14 14 14 14 15 15 15 15 15 15 16 16 16 15 16 15 16 15 17 16 19 19 19 19 18 18 18 16 15 14 14 13 13 12 14
12 12 12 12 12 13 13 13 13 13 14 14 14 15 15 15 15 15 15 15 16 16 16 15 15 15 15 16 17 17 19 19 18 18 18 17 17 17 16 15 14 14 14 14 14
12 12 12 12 12 13 13 13 13 13 14 14 14 14 15 15 15 15 16 16 16 16 16 16 15 14 16 17 17 18 19 18 18 17 17 18 18 17 17 17 15 13 14 14 13
11 12 12 12 12 13 13 13 13 13 14 14 14 14 14 15 14 15 16 16 16 16 16 15 15 15 16 17 16 18 17 17 17 17 17 17 17 17 17 16 15 14 14 14 14
11 12 12 12 12 13 13 13 13 13 14 14 14 14 14 14 14 15 15 16 16 16 16 15 14 15 16 17 16 17 17 17 17 17 17 17 17 17 17 16 15 13 14 13 12
11 11 12 12 12 13 13 13 13 14 14 14 14 14 14 13 14 14 15 15 16 16 16 15 15 14 16 16 16 17 16 17 17 17 17 17 17 17 16 15 15 14 13 12 11
10 11 11 12 12 13 13 13 13 13 14 14 14 14 14 13 14 14 14 15 16 15 14 16 16 15 15 16 16 16 16 18 18 17 18 17 18 17 16 16 14 13 14 12 11
10 10 11 11 12 12 13 13 13 13 14 14 14 14 13 14 14 14 14 15 15 15 15 16 16 15 15 16 16 17 18 18 19 18 18 17 18 17 16 16 14 15 14 12 13
10 10 11 11 11 12 13 13 13 13 13 14 14 14 13 14 14 14 14 14 15 15 15 15 16 15 16 16 18 18 19 19 19 17 17 18 18 17 16 16 14 16 14 13 14
9 10 10 11 11 12 12 12 13 13 13 13 13 14 14 14 14 14 14 14 14 14 15 15 15 16 17 18 19 20 20 20 19 18 17 18 18 18 16 16 15 13 14 14 14
9 10 10 10 11 11 11 12 12 12 13 13 12 13 14 14 14 14 14 14 14 14 14 14 16 17 18 18 17 17 18 18 18 18 17 18 18 18 17 16 15 14 16 15 14
9 10 10 10 10 11 11 11 12 12 13 12 13 13 14 14 13 14 14 14 13 14 15 15 16 17 16 16 16 17 18 18 18 17 17 18 18 18 18 16 16 15 13 14 12
9 9 10 10 10 10 11 11 12 12 12 13 13 13 13 14 13 13 14 13 14 14 15 16 17 16 15 16 16 17 18 18 18 18 17 18 18 18 18 16 16 15 15 12 12
8 9 9 10 10 10 10 11 11 12 12 14 14 13 13 13 13 13 14 13 14 15 16 16 16 15 15 16 16 18 17 17 17 17 19 18 20 19 18 18 16 15 14 14 12
8 8 9 9 10 9 11 10 11 11 15 14 13 13 13 13 15 13 13 13 14 15 15 16 15 15 15 16 16 17 16 16 17 17 18 19 19 20 18 18 18 16 15 14 12
8 8 8 9 9 9 10 10 10 11 15 14 13 13 13 13 14 14 13 13 14 14 14 16 15 15 16 16 15 16 16 16 17 18 19 19 19 20 19 18 17 16 14 14 12
7 8 8 8 9 9 9 9 10 13 14 14 13 13 14 14 14 13 13 13 14 14 15 15 15 15 15 16 15 15 16 18 19 20 21 19 19 19 18 17 16 16 15 13 13
7 7 8 8 9 9 9 8 11 14 14 13 14 14 15 15 15 14 14 14 14 15 17 17 17 16 15 15 16 16 17 18 19 20 19 18 19 18 17 17 16 14 14 13 13
6 7 7 8 8 8 8 9 12 14 13 13 13 14 14 15 15 14 14 15 15 15 16 17 17 16 15 15 15 16 16 17 18 19 19 20 20 18 17 17 16 15 15 13 12
6 7 7 7 8 8 7 10 12 11 11 11 13 14 15 15 14 15 15 15 15 15 15 16 16 16 15 15 15 16 17 17 17 18 18 20 19 19 17 17 16 16 15 15 14
6 5 7 7 7 7 7 10 11 10 10 11 13 13 14 15 15 15 16 15 15 15 15 15 15 16 15 15 16 16 15 16 18 18 19 19 17 16 17 17 16 15 15 15 15
5 5 5 6 7 6 8 10 10 9 9 10 11 12 13 13 14 15 15 15 14 15 15 15 15 16 16 17 16 16 17 17 17 18 18 18 19 17 17 16 16 15 16 15 14
3 4 5 6 6 8 8 9 9 9 9 10 11 10 11 12 13 14 15 14 13 14 15 15 15 16 16 17 16 15 16 16 16 16 17 17 18 17 16 16 16 15 15 15 14
4 4 3 5 6 6 8 7 8 8 9 10 10 10 10 11 11 13 13 12 12 13 13 14 15 15 17 15 16 16 16 16 16 17 17 18 18 17 17 16 15 14 16 15 15
2 4 4 5 6 6 7 7 8 8 7 8 9 9 10 11 12 11 13 13 12 12 13 13 13 15 15 16 16 17 17 16 16 16 17 18 13 15 15 15 14 14 15 15 14
1 1 2 4 3 4 5 6 7 8 8 8 8 9 10 10 11 11 12 12 13 12 12 12 13 13 15 16 16 16 16 16 16 16 16 17 17 16 14 15 14 14 15 15 14
2 2 2 3 3 4 6 6 6 7 7 7 8 9 9 9 10 9 9 9 9 10 12 12 12 13 14 15 16 16 16 16 16 16 16 17 16 14 14 15 15 14 15 14 14
Height
3173 3175 3175 3175 3175 3176 3176 3176 3177 3176 3177 3178 3177 3178 3178 3178 3178 3178 3179 3179 3178 3178 3180 3181 3184 3186 3188 3190 3188 3186 3189 3190 3192 3193 3195 3195 3196 3197 3196 3194 3194 3194 3194 3193 3191
3173 3174 3175 3175 3175 3175 3176 3176 3177 3177 3177 3178 3178 3178 3178 3179 3179 3178 3179 3178 3178 3179 3180 3182 3185 3188 3192 3193 3192 3190 3186 3191 3195 3196 3196 3196 3197 3197 3196 3194 3193 3192 3192 3191 3191
3172 3173 3174 3174 3175 3175 3176 3176 3176 3177 3177 3178 3178 3179 3179 3179 3180 3179 3179 3178 3179 3179 3181 3184 3186 3190 3193 3194 3193 3191 3188 3194 3196 3196 3197 3196 3196 3196 3196 3194 3193 3194 3191 3192 3192
3171 3171 3173 3173 3174 3174 3175 3176 3176 3177 3177 3178 3178 3179 3179 3180 3185 3180 3180 3179 3180 3180 3182 3185 3187 3192 3194 3195 3195 3194 3194 3196 3197 3197 3197 3196 3196 3196 3196 3196 3195 3194 3191 3191 3191
3169 3170 3171 3172 3173 3173 3174 3176 3176 3176 3176 3177 3177 3178 3179 3181 3180 3180 3180 3180 3180 3182 3183 3186 3190 3194 3194 3195 3196 3195 3196 3197 3197 3197 3196 3196 3195 3196 3196 3196 3193 3193 3191 3191 3191
3166 3168 3169 3170 3171 3172 3173 3173 3174 3175 3176 3177 3177 3177 3179 3182 3179 3179 3180 3181 3181 3183 3185 3187 3192 3192 3194 3195 3195 3195 3196 3196 3196 3196 3195 3194 3194 3194 3194 3193 3192 3191 3192 3192 3192
3163 3165 3167 3168 3169 3170 3171 3171 3173 3173 3175 3176 3176 3177 3178 3179 3178 3179 3180 3181 3181 3183 3186 3185 3188 3191 3194 3195 3194 3195 3196 3194 3194 3195 3195 3192 3192 3192 3192 3193 3192 3192 3191 3193 3192
3161 3162 3164 3165 3167 3168 3170 3170 3171 3173 3173 3174 3175 3176 3177 3177 3178 3179 3179 3181 3181 3183 3185 3186 3188 3190 3192 3194 3193 3195 3194 3192 3190 3193 3193 3192 3190 3192 3192 3193 3191 3190 3190 3191 3190
3158 3159 3161 3162 3164 3165 3167 3168 3170 3171 3172 3173 3174 3175 3178 3176 3177 3178 3179 3181 3182 3183 3185 3186 3187 3191 3193 3193 3192 3191 3188 3187 3189 3192 3193 3193 3190 3190 3192 3192 3190 3189 3188 3188 3188
3155 3157 3158 3159 3161 3163 3164 3166 3167 3168 3169 3170 3172 3176 3175 3175 3175 3177 3178 3181 3182 3183 3185 3187 3189 3191 3191 3191 3185 3183 3184 3186 3190 3192 3192 3191 3190 3189 3190 3191 3190 3188 3186 3186 3187
3151 3153 3155 3157 3158 3160 3163 3165 3168 3168 3166 3170 3172 3172 3171 3172 3174 3175 3177 3180 3182 3184 3187 3187 3190 3188 3188 3187 3186 3188 3188 3187 3188 3189 3191 3188 3189 3189 3188 3189 3189 3188 3184 3184 3185
3147 3149 3151 3154 3156 3158 3160 3161 3162 3164 3164 3165 3166 3167 3168 3171 3172 3174 3176 3180 3181 3184 3186 3189 3187 3186 3186 3187 3188 3188 3188 3187 3187 3188 3189 3187 3186 3186 3186 3187 3188 3187 3184 3183 3183
3143 3145 3147 3150 3153 3155 3156 3157 3159 3161 3162 3164 3162 3164 3167 3169 3172 3173 3174 3178 3181 3183 3185 3185 3184 3183 3186 3187 3187 3187 3186 3185 3187 3186 3185 3183 3181 3181 3182 3184 3184 3184 3185 3182 3183
3139 3141 3143 3146 3151 3152 3154 3156 3158 3160 3162 3160 3159 3160 3164 3166 3169 3172 3171 3179 3181 3182 3183 3184 3184 3184 3185 3186 3187 3184 3183 3185 3186 3185 3179 3181 3177 3176 3179 3181 3181 3182 3181 3183 3180
3135 3137 3139 3142 3146 3149 3152 3154 3156 3160 3157 3156 3155 3155 3161 3164 3168 3167 3170 3175 3178 3180 3182 3181 3181 3182 3183 3184 3185 3184 3184 3185 3184 3183 3180 3178 3178 3171 3175 3178 3179 3181 3180 3181 3179
3132 3134 3136 3139 3142 3146 3149 3152 3156 3161 3152 3151 3151 3152 3157 3160 3165 3167 3168 3173 3176 3178 3178 3178 3179 3180 3181 3182 3183 3184 3184 3183 3182 3179 3174 3172 3174 3172 3172 3176 3178 3178 3179 3179 3178
3128 3130 3133 3135 3138 3143 3146 3151 3157 3151 3149 3149 3149 3152 3154 3157 3162 3163 3165 3168 3172 3175 3174 3176 3177 3177 3178 3180 3181 3182 3182 3178 3174 3168 3163 3167 3172 3172 3173 3175 3177 3178 3178 3177 3176
3124 3126 3128 3132 3135 3140 3144 3150 3150 3144 3145 3145 3148 3150 3152 3155 3158 3160 3163 3165 3168 3171 3169 3170 3170 3173 3175 3177 3179 3180 3180 3175 3167 3160 3163 3169 3166 3169 3172 3174 3174 3174 3175 3175 3174
3120 3123 3125 3128 3133 3137 3143 3146 3144 3142 3142 3147 3147 3148 3149 3152 3155 3157 3159 3162 3164 3167 3170 3167 3168 3170 3173 3175 3177 3176 3177 3177 3174 3169 3165 3162 3162 3165 3168 3171 3172 3174 3173 3174 3174
3117 3119 3122 3125 3129 3134 3139 3139 3141 3140 3141 3144 3145 3145 3146 3149 3152 3153 3156 3158 3161 3164 3167 3167 3167 3168 3171 3173 3173 3173 3175 3174 3173 3169 3164 3156 3157 3159 3165 3168 3168 3171 3172 3172 3172
3116 3119 3119 3123 3126 3130 3132 3136 3139 3138 3140 3143 3144 3145 3144 3145 3148 3150 3152 3155 3158 3161 3164 3167 3169 3166 3169 3169 3168 3170 3171 3171 3167 3164 3160 3156 3159 3159 3166 3169 3168 3170 3170 3171 3171
3113 3121 3117 3119 3125 3126 3130 3134 3136 3137 3138 3142 3140 3144 3146 3147 3148 3148 3150 3152 3155 3159 3161 3164 3165 3165 3164 3164 3165 3165 3166 3166 3165 3164 3161 3157 3156 3158 3163 3165 3164 3168 3168 3169 3169
3112 3116 3114 3116 3122 3125 3128 3131 3130 3135 3138 3140 3142 3142 3144 3146 3148 3149 3149 3149 3153 3157 3159 3161 3162 3162 3162 3162 3162 3163 3163 3164 3164 3164 3160 3154 3152 3157 3160 3163 3162 3166 3166 3167 3167
3111 3116 3115 3114 3118 3119 3124 3126 3129 3132 3135 3137 3140 3140 3142 3145 3146 3148 3148 3149 3152 3156 3156 3158 3159 3158 3152 3158 3158 3158 3160 3161 3162 3161 3159 3155 3154 3154 3155 3158 3160 3165 3164 3164 3164
3111 3113 3111 3115 3117 3118 3121 3123 3126 3129 3131 3133 3136 3138 3141 3143 3144 3146 3148 3149 3151 3151 3155 3158 3158 3157 3155 3155 3156 3154 3154 3156 3158 3160 3157 3153 3161 3154 3150 3158 3159 3162 3162 3162 3162
3107 3110 3110 3113 3111 3116 3117 3120 3122 3126 3128 3131 3133 3136 3138 3140 3143 3145 3146 3149 3149 3151 3154 3155 3155 3156 3152 3152 3153 3153 3154 3155 3154 3156 3155 3152 3154 3155 3155 3154 3158 3160 3161 3160 3161
3103 3105 3106 3110 3112 3114 3116 3118 3120 3123 3125 3127 3130 3133 3136 3138 3138 3138 3138 3141 3144 3148 3151 3153 3153 3153 3151 3150 3149 3151 3151 3151 3152 3153 3153 3153 3153 3152 3153 3153 3157 3159 3159 3159 3159
Wind_Speed
7 6 6 5 5 5 4 4 4 4 4 4 4 3 3 4 3 1 1 2 2 4 7 8 11 12 7 1 8 5 7 8 6 7 9 6 3 4 4 3 4 5 4 6 9
8 8 7 6 6 5 5 5 4 4 4 5 4 4 3 2 1 1 0 1 2 4 7 10 12 14 4 6 6 3 6 8 5 5 4 5 4 4 3 2 2 2 2 5 7
10 9 9 8 7 6 6 5 5 5 5 6 6 6 5 3 1 3 2 1 3 5 8 11 16 8 8 7 5 1 10 7 4 2 4 4 3 3 3 2 3 4 2 3 3
13 12 11 10 9 7 6 6 6 5 5 6 5 6 6 4 2 7 5 2 2 4 10 11 13 7 8 5 6 2 3 5 0 3 4 4 2 3 2 4 1 4 4 2 2
14 14 13 12 11 10 9 8 7 6 6 6 6 5 6 5 9 7 7 5 1 4 10 10 8 8 7 8 7 3 4 3 4 5 6 7 6 6 3 2 5 6 4 3 5
16 16 15 13 13 12 11 9 8 7 7 7 7 6 6 3 9 8 8 7 5 3 7 11 8 11 7 8 8 6 6 6 6 7 8 7 6 5 7 4 1 4 5 12 12
17 17 16 16 15 14 12 10 9 8 8 8 7 7 7 12 8 9 8 7 8 5 5 10 12 8 8 6 12 7 7 7 7 5 5 11 7 3 6 1 3 6 5 14 12
18 18 18 18 17 16 14 12 11 10 9 9 8 8 7 9 9 9 9 7 8 8 7 5 7 9 9 9 8 10 10 12 11 5 4 7 7 3 4 3 6 3 6 15 12
17 17 19 19 19 17 16 14 13 13 11 10 10 9 7 11 10 10 9 8 9 7 7 6 5 6 9 9 10 13 16 13 3 4 5 4 5 1 3 5 8 6 7 12 14
17 16 17 18 18 19 17 16 14 14 11 10 10 7 13 9 14 11 11 9 8 7 5 5 4 7 8 12 12 6 11 7 8 4 5 7 4 4 3 5 7 6 8 9 13
17 17 17 17 17 17 16 15 12 13 16 11 6 13 9 16 11 12 11 10 9 7 6 7 7 12 12 10 9 7 7 8 7 9 7 7 8 8 6 5 8 9 10 10 10
18 17 17 17 16 16 15 13 16 16 15 13 17 16 17 11 11 14 13 10 10 9 10 7 10 8 10 7 7 8 9 11 8 9 9 10 11 9 8 8 9 10 13 9 10
18 17 17 16 16 16 16 17 15 14 15 11 17 19 16 15 11 14 13 13 10 11 12 13 3 9 7 9 9 10 12 9 10 6 12 12 17 11 9 6 9 9 12 12 13
18 16 16 15 15 15 17 15 13 11 8 16 18 18 19 13 14 13 14 12 11 12 13 13 12 7 9 11 10 12 10 10 9 11 14 4 16 9 7 6 7 6 9 11 11
17 17 16 16 14 15 14 14 12 9 7 14 13 21 16 20 7 17 17 16 11 9 12 7 9 13 10 10 9 6 6 7 9 12 13 11 9 9 7 4 5 4 7 9 13
17 17 17 16 15 15 14 14 12 9 11 9 11 18 19 23 12 13 18 17 13 12 13 13 8 8 11 11 11 8 7 9 10 13 17 15 9 10 4 3 3 4 4 8 11
17 18 18 17 21 16 15 15 9 15 11 11 11 16 19 20 21 17 21 22 17 15 16 14 15 9 10 11 10 11 10 14 13 14 11 7 6 12 9 5 5 5 6 7 12
16 18 19 19 18 17 18 14 13 17 11 8 10 14 20 19 23 19 19 22 23 16 11 14 17 18 12 15 12 14 15 18 13 9 4 6 4 1 2 7 5 3 4 6 8
14 16 18 19 19 20 21 19 16 13 8 8 11 13 18 20 16 19 22 23 21 21 17 11 9 8 10 13 15 16 17 17 21 22 18 20 13 5 5 4 4 3 0 6 9
12 14 18 19 20 21 22 24 16 11 12 10 11 12 18 19 18 20 21 22 22 21 17 6 8 7 9 10 13 21 11 14 16 14 15 19 6 8 7 2 9 7 3 7 6
9 6 14 18 21 23 25 23 18 13 17 7 14 10 9 16 18 19 18 11 22 20 19 16 10 10 9 12 14 10 18 18 20 16 12 8 6 16 3 2 2 3 6 8 7
7 3 12 16 20 20 21 19 19 15 13 8 13 12 11 10 13 14 19 16 14 20 19 19 12 17 14 8 11 9 14 15 17 17 18 18 13 9 8 3 3 6 5 6 7
6 8 14 17 14 18 19 20 18 14 15 13 11 12 11 10 8 14 13 11 12 11 11 18 16 17 16 16 17 17 16 17 15 17 19 18 2 5 4 3 2 6 9 7 9
4 3 6 16 15 16 21 20 17 15 14 17 13 12 12 13 12 12 15 9 15 11 16 15 15 17 22 4 12 13 15 16 16 20 18 23 21 11 3 4 2 7 9 11 10
2 6 11 7 14 17 12 14 20 17 16 13 15 13 14 14 15 14 13 13 11 15 16 15 16 17 21 17 12 12 11 14 17 19 24 19 10 16 8 6 3 6 11 13 11
6 5 8 6 11 12 16 17 17 18 11 16 17 15 16 16 16 14 15 15 13 15 17 15 15 17 20 19 15 16 16 17 13 17 19 22 16 7 3 4 2 6 11 12 12
7 7 9 8 9 10 14 15 15 16 17 10 15 15 17 15 16 15 15 15 6 10 14 15 15 15 19 20 19 18 18 17 17 17 19 16 11 5 3 2 6 10 13 13 12
Wind_Direction
206 207 207 191 200 201 200 193 192 179 179 183 161 171 135 138 136 167 213 219 204 184 177 165 165 141 123 225 173 192 172 108 76 64 71 58 48 54 59 84 76 70 87 155 5
221 218 222 210 205 203 212 212 211 201 199 214 205 207 183 162 140 186 293 43 145 160 161 155 150 136 129 156 176 204 194 85 88 77 47 32 55 71 73 16 41 10 335 342 18
232 233 230 224 216 209 216 222 220 214 207 221 216 218 220 205 198 232 248 43 119 149 157 159 155 150 165 159 215 301 99 133 81 60 25 34 34 52 21 347 309 196 315 0 26
237 235 239 236 229 222 223 225 224 217 214 221 222 216 207 183 177 240 229 245 111 141 146 157 160 161 169 183 197 190 124 152 195 360 346 335 343 341 2 340 311 182 272 339 312
241 239 241 238 233 227 226 227 227 221 220 221 222 216 205 179 245 232 221 232 215 139 148 160 175 182 180 200 202 204 210 225 291 300 301 305 304 280 271 284 305 171 242 214 186
243 242 240 239 242 234 227 235 232 226 226 222 219 218 206 210 238 226 217 219 225 157 164 163 189 203 202 201 203 222 242 252 276 287 300 304 296 266 249 264 277 189 194 181 181
245 246 243 240 238 240 243 235 236 231 229 224 219 219 217 230 229 221 212 210 216 198 196 203 199 187 244 236 244 252 259 264 264 276 285 305 244 172 224 215 188 172 210 185 186
246 248 249 246 245 242 241 240 241 238 231 228 224 219 224 228 227 221 218 214 216 214 216 220 201 207 224 243 258 243 252 261 191 273 268 319 109 139 191 207 174 239 212 190 208
247 248 249 250 249 249 248 248 243 242 239 229 224 222 241 229 228 220 217 214 217 222 220 215 197 221 241 243 246 231 251 215 190 252 266 298 342 103 209 203 194 280 227 218 227
248 246 248 250 251 251 249 252 256 257 249 240 233 227 243 233 229 220 215 212 215 227 227 201 211 227 228 225 253 249 211 235 244 235 259 266 275 305 248 221 225 229 247 249 240
247 246 243 246 247 250 251 255 268 287 247 205 238 205 227 227 229 221 212 212 210 209 203 224 216 222 227 230 269 260 272 270 259 241 256 269 281 282 269 253 240 227 267 268 244
245 243 242 239 239 241 242 240 244 241 253 241 231 220 228 222 222 217 209 201 202 205 203 225 224 229 224 244 249 248 251 253 250 250 256 269 279 278 268 251 255 249 244 263 238
241 241 240 237 233 232 232 237 239 244 254 252 237 229 227 215 204 217 207 190 214 208 213 223 183 218 237 240 243 246 248 256 257 262 276 265 276 243 244 244 249 242 241 245 215
239 236 236 233 229 226 230 227 227 232 243 233 240 231 210 205 221 206 198 191 207 217 219 237 239 240 234 234 239 262 231 247 258 271 280 223 293 205 214 268 247 253 239 222 221
236 232 229 226 226 217 222 218 209 193 256 185 188 216 209 199 214 203 199 200 199 217 207 235 227 230 226 224 230 259 247 248 260 268 270 273 249 264 222 263 191 281 244 218 219
233 231 224 221 220 220 209 204 187 196 239 194 210 207 194 200 208 196 198 198 211 221 228 228 230 221 228 228 227 239 257 256 259 260 258 248 263 284 32 48 309 280 252 217 208
230 225 223 217 218 206 198 187 200 226 201 203 209 196 197 201 200 200 195 200 202 203 219 229 231 226 205 214 219 221 243 248 224 223 243 144 245 292 303 293 271 251 269 216 196
233 224 220 218 215 202 193 184 232 217 211 186 182 194 202 199 200 206 201 208 211 217 251 214 213 218 226 214 217 229 243 263 292 285 55 185 281 60 231 284 275 291 227 201 197
238 230 221 214 213 200 189 201 214 224 204 200 201 203 203 204 207 206 208 213 215 209 224 218 227 184 212 228 224 246 245 254 272 272 271 281 269 259 207 292 230 182 91 179 190
235 225 225 213 207 198 194 213 225 218 198 194 202 201 199 203 204 204 207 216 215 214 208 250 243 224 214 216 232 230 248 248 239 265 281 267 269 227 146 114 166 253 324 313 257
225 217 218 212 205 196 208 213 226 246 226 198 216 220 229 199 209 207 211 205 209 213 218 220 236 198 218 227 232 229 237 245 266 276 284 277 172 351 27 164 149 240 254 291 275
198 196 241 205 201 210 217 208 227 231 219 224 182 207 213 210 216 230 218 218 208 208 215 214 228 243 232 245 227 241 240 231 245 237 258 270 280 171 184 220 106 209 280 288 245
163 228 226 195 199 216 215 218 227 223 220 219 215 208 212 207 216 217 208 197 193 187 209 212 223 238 242 236 241 239 240 242 248 260 271 278 344 255 285 241 132 191 263 289 253
150 225 240 204 206 206 214 219 223 211 217 217 215 215 215 208 211 210 202 218 210 208 218 190 220 234 245 280 282 212 236 234 233 244 244 245 261 200 253 143 261 189 316 295 250
192 224 189 223 224 217 213 221 215 220 211 219 219 218 215 214 213 214 209 212 216 222 213 212 230 240 254 262 253 250 232 225 236 243 251 258 233 350 137 212 155 204 311 312 243
179 207 215 225 200 203 220 213 204 213 222 221 217 227 217 215 214 215 220 220 228 224 210 218 236 241 258 249 247 252 244 251 248 244 249 262 289 267 111 283 354 323 314 316 239
235 211 195 227 231 212 217 213 214 211 221 207 223 218 215 222 218 210 187 203 206 193 208 221 229 235 245 236 240 237 242 244 242 247 244 257 281 352 353 276 333 347 333 326 247